Regional Weather Roundup
Issued by NWS

Home | Current Version | Previous Version | Graphics & Text | Print | Product List | Glossary On
Versions: 1 2 3 4 5 6 7 8 9 10 11 12 13 14 15 16 17 18 19 20 21 22 23 24 25 26 27 28 29 30 31 32 33 34 35 36 37 38 39 40 41 42 43 44 45 46 47 48 49 50
000
ASUS43 KLOT 290703
RWRIL

ILLINOIS REGIONAL WEATHER ROUNDUP
NATIONAL WEATHER SERVICE CHICAGO/ROMEOVILLE IL
200 AM CDT SUN MAY 29 2016

NOTE: "FAIR" INDICATES FEW OR NO CLOUDS BELOW 12,000 FEET WITH NO
SIGNIFICANT WEATHER AND/OR OBSTRUCTIONS TO VISIBILITY.

* THESE STATIONS ARE NOT UNDER NWS QUALITY CONTROL. THEY ALSO MAY NOT
  REPORT WEATHER SUCH AS PRECIPITATION OR FOG.

ILZ001-002-007-009-015-016-024-290800-
NORTHWEST ILLINOIS

CITY           SKY/WX    TMP DP  RH WIND       PRES   REMARKS
MOLINE         CLEAR     68  59  73 SW8       29.94S
STERLING*      PTCLDY    67  63  87 VRB3      29.96S
$$

ILZ003-004-008-010-011-017-018-290800-
NORTH CENTRAL ILLINOIS

CITY           SKY/WX    TMP DP  RH WIND       PRES   REMARKS
ROCKFORD       CLOUDY    69  63  81 SW7       29.96S
FREEPORT*      CLEAR     64  59  85 S9        29.96S
ROCHELLE*      MOCLDY    65  63  92 S10       29.96S
$$

ILZ005-006-012>014-019>023-290800-
NORTHEAST ILLINOIS

CITY           SKY/WX    TMP DP  RH WIND       PRES   REMARKS
CHICAGO-OHARE  CLOUDY    66  60  81 S9        29.94F
CHICAGO-MIDWAY CLOUDY    68  56  65 SW8       29.95F
AURORA         MOCLDY    65  62  90 S9        29.96F
LANSING*       MOCLDY    64  56  75 S7        29.97F
WAUKEGAN       CLOUDY    65  63  93 SW9       29.92F
DUPAGE AIRPORT CLOUDY    64  60  87 S7        29.95F
WHEELING       CLOUDY    66  61  84 S8        29.95F
NORTHERLY ISL    N/A     69  54  58 SW7         N/A
NORTHERLY ISL    N/A     69  54  58 SW7         N/A
$$

LMZ740>746-290800-
SOUTHERN LAKE MICHIGAN

STATION/POSITION SKY/WX   TEMP    WIND        PRES    VSBY  WAVE
                          AIR SEA DIR/SP/G                  HT/PER
                          (F)     (DEG/KT/KT) (MB)    (MI)  (FT/S)
SOUTHERN BUOY              56 50  190/  6/  8 1013.7          2/ 4
WILMETTE HARBOR            60 52  220/  8/ 16   N/A           1/ 3
HARRISON CRIB              70     200/ 12/ 12   N/A
BURNHAM HARBOR             69     200/  6/ 10   N/A
CALUMET HARBOR             71     200/  9/ 13 1015.0R
BURNS HARBOR               72     230/ 13/ 20 1016.3R
MICHIGAN CITY              72     190/ 12/ 13   N/A
MICHIGAN CITY 6N           65 56  230/  8/ 10   N/A           1/ 3
ST. JOSEPH                 67 61  200/ 10/ 14   N/A           2/ 3
$$

ILZ025>027-034>036-040-047-049-050-058-095>099-290800-
WEST-CENTRAL ILLINOIS

CITY           SKY/WX    TMP DP  RH WIND       PRES   REMARKS
QUINCY         CLEAR     65  59  81 SW7       29.99F
MACOMB*        CLEAR     65  60  86 W7        30.00S
PITTSFIELD*    CLEAR     67  64  87 SW3       30.02S
$$

ILZ028>032-037-038-041>044-048-051>054-059>061-290800-
CENTRAL ILLINOIS

CITY           SKY/WX    TMP DP  RH WIND       PRES   REMARKS
BLOOMINGTON    PTCLDY    65  65 100 SW6       30.02S
DECATUR        CLEAR     69  65  86 SW7       30.01R
PEORIA         PTCLDY    65  62  90 S5        29.99S
SPRINGFIELD    CLEAR     71  66  84 SW3       30.01R
TAYLORVILLE    NOT AVBL
$$

ILZ033-039-045-046-055>057-062-063-290800-
EAST-CENTRAL ILLINOIS

CITY           SKY/WX    TMP DP  RH WIND       PRES   REMARKS
CHAMPAIGN      MOCLDY    67  61  81 NE5       30.02S
MATTOON        CLEAR     70  65  84 SW7       30.02R
$$

ILZ079-100>102-290800-
SOUTHWEST ILLINOIS

CITY           SKY/WX    TMP DP  RH WIND       PRES   REMARKS
BELLEVILLE     CLEAR     69  69  99 CALM      30.01S
CAHOKIA*       CLEAR     68  64  87 CALM      30.01S
SPARTA*        CLEAR     70  67  90 SW3       30.03S
$$

ILZ064>066-069>071-074>076-080>082-084>086-088>090-092>094-290800-
SOUTH-CENTRAL ILLINOIS

CITY           SKY/WX    TMP DP  RH WIND       PRES   REMARKS
CARBONDALE     CLEAR     66  64  93 CALM      30.03S
EFFINGHAM*     PTCLDY    69  69  99 CALM      30.05S
MT. VERNON     CLEAR     68  63  83 S3        30.03S
SALEM*         PTCLDY    72  67  87 W6        30.03R
$$

ILZ067-068-072-073-078-083-087-091-290800-
SOUTHEAST ILLINOIS

CITY           SKY/WX    TMP DP  RH WIND       PRES   REMARKS
LAWRENCEVILLE  CLOUDY    70  68  93 S7        30.02F
FLORA*         CLEAR     69  67  93 SW5       30.03R
HARRISBURG*    CLEAR     68  67  96 CALM      30.03R
ROBINSON*      PTCLDY    67  65  94 S3        30.03S
$$

ABBREVIATIONS USED IN REMARKS
   TC - TEMPERATURE IN CELSIUS
  WCI - WIND CHILL INDEX
   HX - HEAT INDEX
  VSB - VISIBILITY
$$





USA.gov is the U.S. government's official web portal to all federal, state and local government web resources and services.